Location: Unspecified
(0.0000°N, 0.0000°E)
Time: 01:24:13
(UTC+00:00)

COSMOS 2508 - Pass Details

Date: 02 October 2020
Orbit: 1484 x 1504 km, 82.5° (Epoch: 20 October)

Event Time Altitude Azimuth Distance (km) Brightness Sun altitude
Rises 18:08:44 0° 171° (S) 4,623 ? -4.9°
Reaches altitude 10° 18:11:45 10° 165° (SSE) 3,644 ? -5.6°
Maximum altitude 18:20:06 49° 93° (E) 1,867 ? -7.7°
Drops below altitude 10° 18:28:26 10° 21° (NNE) 3,646 ? -9.8°
Sets 18:31:26 0° 16° (NNE) 4,626 ? -10.6°
